Temperature
24 23 22 21 21 21 22 25 27 27 29 28 29 28 27 27 25 24 24 23 23 23 22 22 22 21 21 21 21 21 21 21 21 21 21 21 21 21 20 20 20 20 20 20 20 20 20 21 20
24 23 22 21 22 22 23 25 25 26 27 28 29 28 27 25 24 23 23 23 24 24 23 22 22 22 21 21 21 21 21 21 21 21 21 21 21 21 21 21 20 20 20 20 21 21 21 21 21
25 24 23 21 23 23 24 25 25 26 27 29 29 28 27 25 24 24 24 24 24 24 23 22 22 22 22 21 21 21 21 21 21 21 21 21 21 21 21 21 21 21 21 21 21 21 21 21 21
25 24 23 22 24 24 24 25 25 26 26 28 28 27 27 25 25 25 24 24 25 24 23 23 22 22 22 22 21 21 21 21 21 21 21 21 21 21 21 21 21 21 21 21 21 21 21 21 21
25 24 22 23 24 26 26 26 25 25 26 27 27 26 26 26 26 26 25 24 25 25 24 23 23 22 22 22 22 21 21 21 21 21 20 20 20 20 20 20 20 20 20 20 20 20 20 20 20
25 23 23 23 26 28 26 26 25 24 25 26 26 26 25 26 26 25 25 25 25 25 24 24 23 23 22 22 22 21 21 21 21 21 20 20 20 20 20 20 20 20 20 19 19 19 20 20 20
25 23 23 25 26 27 26 25 25 25 25 26 26 25 25 24 25 25 25 25 25 25 25 24 23 23 22 22 22 22 21 21 21 21 21 20 20 20 20 20 20 20 20 19 19 19 19 19 19
28 23 24 25 27 27 27 26 26 26 26 27 27 25 25 25 25 25 25 25 25 25 25 25 24 23 23 22 22 22 21 21 21 21 21 20 20 20 20 20 20 20 19 19 19 19 19 19 19
28 23 23 25 27 28 27 26 26 27 27 26 27 28 28 26 25 24 24 24 25 25 25 25 24 24 23 23 22 22 22 21 21 21 21 21 20 20 20 20 19 19 19 19 19 19 19 19 19
26 22 24 26 28 29 28 27 27 26 26 26 27 28 28 26 26 25 24 24 24 24 24 24 24 24 24 23 22 22 22 21 21 21 21 21 20 20 20 19 19 18 18 18 18 18 19 19 19
26 24 26 28 30 30 29 29 29 27 25 26 27 28 27 27 26 25 25 24 24 24 24 23 24 24 23 23 23 22 21 21 21 21 20 20 19 19 19 19 19 18 18 18 18 18 18 18 19
26 26 28 29 31 30 30 30 30 28 29 30 30 29 28 27 26 26 25 25 24 24 23 23 23 23 23 22 22 22 21 21 20 20 20 19 19 19 19 19 19 18 18 18 18 18 18 18 18
26 27 29 30 30 30 31 30 30 30 31 30 29 28 28 27 26 26 25 24 23 23 23 22 22 22 22 21 21 21 20 20 20 19 19 19 19 19 19 19 18 18 18 18 18 18 18 18 18
26 27 27 29 29 30 29 29 29 30 30 28 27 26 27 26 25 24 23 22 22 21 21 21 21 20 21 21 21 20 20 20 19 19 19 19 19 18 18 18 18 18 18 18 18 18 18 18 17
28 25 25 27 28 29 29 27 28 31 29 26 25 25 24 23 22 21 21 21 20 20 19 19 19 19 19 19 20 19 19 19 19 19 19 19 19 18 18 18 18 18 18 18 18 17 17 17 17
25 24 24 26 27 28 28 26 28 29 27 25 24 23 22 21 20 20 20 20 20 19 19 18 18 18 18 19 19 19 19 19 19 19 19 19 19 18 18 18 18 17 17 17 17 17 17 17 17
23 23 24 26 27 27 27 25 25 26 25 23 22 20 19 18 19 19 20 20 20 20 20 19 18 17 18 18 19 19 19 19 19 19 19 19 19 18 18 17 17 17 17 17 17 17 17 17 17
23 24 25 26 27 26 24 23 22 21 21 19 18 17 17 17 17 18 19 19 20 20 19 19 18 17 17 17 18 18 19 19 19 19 19 19 19 18 18 17 17 17 17 17 17 16 16 16 16
26 26 26 27 27 25 22 20 19 18 18 17 16 15 15 15 16 17 18 18 19 19 19 18 17 17 17 17 17 18 19 19 19 19 19 19 19 18 18 17 17 17 17 17 16 16 16 16 16
26 26 26 26 27 25 21 19 18 18 17 16 15 14 14 14 15 16 17 18 18 18 17 17 17 17 17 17 18 18 19 19 19 19 19 19 19 19 18 18 18 17 17 17 17 16 16 16 16
26 26 26 26 25 24 23 19 17 17 17 16 15 14 14 14 14 15 16 16 16 16 16 16 16 17 17 17 18 19 19 19 19 19 19 19 19 19 19 18 18 18 18 18 17 17 17 16 16
25 27 27 26 24 21 22 19 17 16 16 16 15 14 14 14 14 15 16 16 16 16 16 16 16 16 17 17 18 19 19 19 19 18 18 19 19 19 19 19 18 18 18 18 18 17 17 16 16
27 26 26 25 23 21 20 19 17 16 15 15 15 14 14 14 15 15 15 15 15 15 15 16 16 16 16 17 17 17 18 18 18 18 18 18 18 18 18 18 18 18 18 18 18 17 17 16 16
27 24 22 19 19 20 20 18 17 15 15 15 15 15 15 15 15 15 15 15 15 15 15 15 15 16 16 16 16 16 16 16 17 17 17 17 17 17 17 17 17 18 18 18 18 17 17 16 16
25 21 20 20 18 19 18 17 16 16 16 16 15 15 15 16 16 16 16 16 15 15 15 15 15 15 15 15 15 15 15 15 15 15 15 16 16 17 17 17 17 17 17 17 17 17 17 17 16
25 21 20 20 20 18 18 17 16 16 16 16 16 16 16 16 15 15 15 15 15 15 15 15 15 15 14 14 14 14 14 14 14 14 14 14 14 15 15 16 16 16 16 16 16 17 17 16 16
24 22 21 19 20 18 17 16 15 15 16 16 16 16 16 16 16 16 15 15 15 15 15 14 14 14 14 13 13 13 13 13 13 13 13 13 13 13 14 14 15 15 15 15 15 16 16 16 16
23 22 19 19 19 19 18 17 16 15 15 15 15 16 16 16 16 16 16 16 15 15 14 14 14 13 13 13 13 13 12 12 12 12 12 11 12 12 12 13 13 13 14 14 14 15 15 15 15
23 22 20 18 18 18 18 17 17 15 15 15 15 16 16 16 16 16 16 15 15 14 14 14 13 13 13 13 12 12 12 12 11 11 11 11 11 11 11 12 12 12 13 13 13 14 14 15 15
22 21 19 19 18 17 17 16 17 15 15 16 16 16 16 16 16 15 15 14 14 14 13 13 13 13 12 12 12 12 12 11 11 11 11 10 10 10 10 11 11 11 12 12 12 13 13 14 14
Wind_Speed
9 9 4 1 1 4 5 8 6 11 8 7 10 10 8 5 3 4 5 18 21 19 18 23 24 24 23 22 22 21 20 19 18 17 17 17 17 16 16 18 17 16 16 15 15 14 14 14 13
5 5 2 0 3 4 4 6 8 12 7 2 7 8 7 6 7 10 8 17 23 19 17 21 25 24 24 23 22 21 20 20 19 18 17 17 16 16 16 17 17 16 15 15 14 14 14 13 12
4 4 3 2 2 4 4 6 8 13 12 6 4 5 5 7 10 9 10 20 19 16 16 21 26 25 24 23 22 21 20 20 19 19 18 18 17 16 15 16 16 15 14 14 13 13 13 12 11
2 2 2 3 3 6 5 2 5 13 12 8 4 5 4 7 9 11 19 19 19 14 15 21 25 25 24 23 22 21 20 20 19 18 18 17 17 16 15 15 14 14 13 13 13 12 12 12 11
3 3 2 2 6 4 4 1 6 9 11 9 5 4 4 4 17 22 21 20 19 15 13 20 24 24 24 23 22 21 20 20 19 18 17 16 16 15 15 14 14 13 13 13 13 12 12 12 11
2 3 1 4 3 2 5 6 11 7 3 6 4 3 2 10 20 21 21 19 19 19 14 18 24 24 24 23 23 22 21 20 20 19 18 17 16 15 15 14 14 14 14 14 14 14 14 13 13
4 1 4 5 4 3 7 8 11 12 8 5 2 3 3 11 17 20 19 18 17 18 16 13 18 21 23 23 22 22 21 20 20 19 19 18 18 17 16 16 16 15 15 16 16 16 16 16 15
6 2 4 3 5 4 5 7 8 14 9 6 5 7 7 11 14 17 16 15 15 16 16 14 13 15 16 18 22 22 21 21 20 20 19 19 19 18 18 17 16 17 17 17 17 17 17 17 16
2 2 5 5 5 5 5 6 5 5 6 5 5 7 9 14 15 16 13 12 13 14 13 13 12 11 13 14 18 20 21 21 20 19 20 19 15 15 15 17 18 19 19 19 19 19 19 18 17
5 4 10 8 8 6 7 9 8 7 7 4 5 5 10 16 16 19 19 19 18 16 14 13 14 13 11 13 14 13 15 15 16 14 16 15 13 14 14 15 20 21 21 21 21 21 20 18 13
4 8 9 12 13 7 5 6 7 12 8 12 15 15 15 15 15 18 19 19 19 16 15 13 14 13 13 9 8 8 10 10 13 14 14 12 11 11 12 9 12 17 20 17 18 18 15 12 10
6 10 9 9 8 6 5 5 3 9 15 19 21 21 20 18 19 18 16 16 14 14 13 12 12 13 13 10 8 7 6 6 7 12 14 10 6 6 6 5 7 8 9 9 9 7 9 10 12
5 7 10 10 11 8 8 8 7 7 10 16 17 17 18 18 15 10 6 7 8 10 9 8 9 10 11 10 8 9 7 6 7 9 12 12 7 8 7 4 4 5 6 5 5 6 8 8 8
8 11 14 12 11 8 8 11 10 7 8 15 17 17 15 10 6 6 9 10 9 6 4 3 1 4 5 6 6 6 6 5 6 7 11 13 9 7 6 5 5 4 4 5 4 6 6 6 6
7 10 14 11 10 8 7 11 12 7 8 13 14 12 6 8 12 14 14 16 15 12 12 10 7 6 3 2 4 5 5 5 5 5 9 10 9 6 6 5 4 4 5 4 3 4 3 4 4
7 7 8 14 10 10 3 10 15 5 10 10 9 8 12 15 16 15 15 14 14 12 11 10 8 8 6 3 1 2 4 5 5 5 7 8 9 8 4 4 4 3 3 3 3 3 3 3 3
4 5 10 14 8 6 5 5 10 9 11 12 11 13 16 15 16 14 13 12 11 8 7 5 5 6 6 5 5 4 0 3 4 5 5 7 8 8 4 4 3 3 2 2 2 1 2 2 3
7 7 6 7 8 6 7 8 16 19 21 20 17 16 14 13 11 8 8 7 8 7 6 6 3 5 6 5 6 5 2 1 3 5 5 7 7 8 5 4 3 3 2 1 1 1 1 2 2
7 4 5 7 7 10 16 19 21 22 24 21 18 14 12 10 7 7 7 7 8 10 10 7 4 2 3 4 5 4 3 2 4 5 6 7 7 8 6 5 4 4 3 2 1 2 1 1 1
7 4 5 7 8 8 16 20 19 23 23 20 18 16 14 11 10 9 10 11 11 11 9 6 5 3 4 4 4 4 3 2 3 4 5 7 7 7 6 7 5 4 3 2 1 1 1 1 1
7 4 4 4 6 8 7 10 15 16 19 19 18 15 14 13 12 12 14 13 13 13 11 9 8 7 7 5 3 2 2 3 2 1 3 5 7 7 7 8 6 5 4 3 2 2 3 2 1
5 6 4 4 4 4 4 3 6 9 15 17 15 13 11 10 9 10 12 12 12 11 10 9 9 10 10 9 8 7 5 3 3 3 3 4 5 7 8 9 8 7 5 5 4 3 3 3 2
5 5 3 3 2 2 4 6 2 4 9 10 8 8 8 6 7 9 9 9 9 8 7 6 7 9 9 10 10 9 7 5 4 5 5 4 3 5 6 8 8 8 6 6 5 4 4 3 3
2 6 8 7 6 3 4 5 1 1 1 2 3 4 3 2 4 5 5 6 5 5 5 5 6 7 7 7 8 8 8 8 7 7 7 5 4 4 5 7 8 8 7 6 6 5 5 4 4
7 7 6 7 6 3 1 5 2 3 3 3 3 2 1 1 2 3 3 3 1 1 2 3 5 5 6 7 7 6 6 6 6 6 6 6 4 4 6 4 6 7 7 8 7 6 6 5 5
1 8 5 3 4 2 3 2 3 3 3 3 3 4 3 2 1 2 2 2 3 3 2 1 1 1 3 4 4 4 4 4 4 5 5 5 5 5 6 5 4 5 7 7 7 5 6 5 6
1 1 5 6 1 2 1 2 2 5 5 4 3 3 3 3 3 4 5 6 6 6 6 5 4 3 2 2 3 3 4 4 5 6 5 5 5 6 8 8 6 4 5 7 7 6 7 6 6
3 3 6 5 2 2 1 3 4 8 8 5 4 3 3 4 5 6 7 8 8 8 8 7 6 6 6 7 6 5 6 6 5 5 6 6 6 6 7 8 8 7 6 6 7 7 7 8 7
6 5 4 3 4 3 2 4 4 7 6 4 3 3 4 5 7 8 8 8 8 7 6 7 7 8 8 9 8 8 8 8 7 6 7 7 6 6 6 7 7 8 8 7 7 8 8 9 8
5 3 2 2 3 2 2 4 2 4 2 1 3 5 7 8 9 9 8 7 5 5 6 8 9 9 10 10 9 10 10 9 8 8 9 8 8 7 7 7 7 8 8 7 7 8 8 8 9
Wind_Direction
171 168 160 168 90 50 338 308 324 343 7 33 71 88 89 73 145 167 142 151 145 152 158 156 156 158 157 154 151 149 148 147 147 146 144 142 141 139 140 145 147 147 144 141 139 139 140 142 142
174 173 159 6 79 52 316 292 327 341 338 73 66 65 73 67 84 114 124 151 148 151 155 156 156 158 159 158 157 156 155 155 155 154 152 150 149 148 147 149 151 150 149 147 148 148 149 150 152
179 175 147 69 70 164 232 287 324 332 329 337 55 44 68 108 120 134 148 149 145 150 155 159 158 160 162 162 161 161 161 162 162 160 159 158 156 156 156 156 157 157 158 158 160 161 162 163 165
134 102 50 72 228 222 214 266 359 346 341 346 73 54 40 126 135 140 144 150 149 153 158 161 161 163 165 166 166 166 167 168 168 167 165 165 164 164 164 165 166 166 166 168 170 172 174 176 178
86 89 63 268 244 224 194 167 75 22 334 343 39 76 23 50 126 138 150 156 155 156 161 164 164 167 169 170 170 171 173 174 174 173 173 174 175 175 174 175 176 177 177 178 180 183 185 188 191
59 85 74 263 261 182 174 154 110 93 329 315 355 78 65 127 136 150 157 161 161 161 165 168 168 170 172 174 175 176 178 179 180 180 180 182 184 186 187 188 189 190 191 191 193 195 198 201 204
166 148 234 258 286 230 191 173 145 148 194 231 199 114 144 156 154 158 162 162 162 163 167 171 173 175 177 178 180 182 184 185 186 187 188 189 191 194 197 198 200 202 204 205 206 207 209 210 211
162 119 279 288 304 272 189 184 180 157 183 195 180 167 186 189 160 161 162 162 163 168 172 175 176 177 179 182 185 187 189 191 193 194 195 197 199 201 204 206 210 212 213 214 215 215 217 217 217
127 58 264 258 264 264 199 204 192 165 158 190 204 199 194 175 158 159 163 162 170 175 178 178 178 178 179 182 191 192 195 198 198 200 202 203 206 208 212 215 217 221 221 221 220 220 221 221 222
128 198 248 241 253 266 223 216 186 160 161 199 232 222 170 170 169 169 174 175 179 181 183 184 183 182 180 188 192 195 199 202 203 204 207 206 203 209 216 223 228 229 229 228 227 225 224 225 227
194 222 262 273 269 264 247 242 185 155 185 201 193 190 177 180 183 182 182 180 182 180 181 186 188 187 186 193 186 193 202 203 208 209 210 208 204 211 220 220 237 237 233 230 231 229 225 223 223
275 273 273 278 296 307 286 282 233 192 206 197 190 182 179 186 192 191 182 178 174 173 180 183 189 190 193 194 189 188 198 200 205 212 210 205 207 213 215 216 227 231 222 215 220 220 218 223 228
288 291 307 302 312 316 329 315 297 265 213 180 182 184 188 192 193 184 157 132 148 168 168 175 196 203 197 197 192 189 196 200 204 206 209 205 206 214 218 211 222 226 215 205 209 215 220 223 228
291 307 308 304 310 312 322 314 322 290 169 170 180 190 194 183 150 97 67 65 70 68 66 78 215 240 217 201 189 178 181 189 195 202 206 203 205 210 210 211 217 222 215 207 205 214 220 227 230
308 325 317 299 296 291 341 325 297 291 159 171 180 179 132 84 69 64 59 56 50 45 38 19 351 316 279 201 173 171 165 166 178 185 186 186 189 192 197 202 211 215 209 203 202 212 209 225 232
334 328 299 282 274 268 253 272 287 330 137 150 155 135 91 72 66 64 65 66 61 56 44 15 353 323 304 296 247 191 165 161 169 169 168 171 178 182 179 191 210 206 193 191 203 208 216 232 235
326 277 278 291 290 252 182 252 342 23 90 89 94 94 91 78 66 61 66 73 71 75 87 58 2 319 305 317 320 317 222 157 158 161 165 173 176 176 165 182 197 175 170 194 216 187 198 228 251
281 286 298 314 333 35 70 48 32 40 62 68 71 75 79 73 66 66 66 70 75 65 70 74 22 319 313 318 309 311 296 212 158 163 171 169 170 164 152 152 152 134 126 134 167 166 178 194 222
281 314 335 319 339 51 67 60 48 45 51 51 52 54 57 59 59 59 55 54 64 62 54 51 19 2 300 268 263 266 247 214 172 178 176 172 166 160 150 141 131 127 132 153 172 178 181 223 177
318 336 333 325 356 54 78 70 59 51 53 49 43 33 29 32 38 46 54 54 53 61 55 30 355 318 271 249 252 244 233 224 191 185 184 180 171 166 157 151 152 151 144 141 151 164 161 220 128
318 314 315 326 7 30 86 62 52 52 54 51 45 37 28 29 31 38 49 49 50 46 39 37 27 16 8 347 309 323 14 16 22 246 216 205 183 172 163 165 162 166 163 180 198 188 171 183 182
300 291 316 342 21 345 56 97 53 48 48 46 43 36 28 22 30 39 46 46 47 45 39 32 29 29 25 19 24 33 29 7 331 299 272 252 209 184 176 174 172 174 176 188 205 193 178 166 190
277 299 347 353 38 33 29 102 52 26 42 42 42 44 37 22 34 45 45 43 42 40 42 38 33 33 29 30 32 32 28 6 344 345 346 317 275 235 208 189 179 180 186 196 202 197 197 188 190
320 31 31 40 55 22 338 108 21 0 110 80 59 57 58 53 57 57 52 46 38 29 28 28 32 29 25 29 32 33 22 8 4 358 350 338 318 297 262 220 197 187 188 198 202 201 208 216 218
46 61 22 0 3 299 8 94 169 181 174 143 143 163 200 147 98 77 65 60 53 36 31 34 37 22 14 22 25 25 14 358 351 340 338 340 336 328 322 270 220 200 195 197 196 202 218 221 227
338 115 131 234 248 279 12 108 178 199 215 203 193 198 197 186 157 151 180 206 223 217 198 171 89 25 5 11 4 3 0 348 330 326 323 322 319 307 321 320 269 228 207 204 202 208 215 218 225
55 106 174 160 301 86 165 108 214 224 234 231 217 191 183 194 201 213 224 225 225 221 215 205 196 216 245 256 270 286 304 312 311 314 315 314 317 321 332 330 322 282 243 223 210 214 219 220 225
112 119 57 57 38 351 300 222 217 210 224 224 213 199 214 221 229 238 241 236 228 216 208 200 201 214 228 234 240 243 250 260 272 290 297 300 306 317 326 329 327 316 287 250 227 222 223 221 228
14 28 67 95 133 130 311 283 234 204 202 196 220 246 259 268 268 266 266 262 250 228 213 214 220 227 237 240 241 245 248 248 253 263 272 277 284 294 302 308 313 314 305 287 258 239 227 223 227
53 31 84 97 360 77 120 289 282 178 184 211 319 318 313 305 299 299 305 309 300 269 247 243 241 240 244 244 242 244 248 248 247 252 259 263 270 277 280 287 293 297 301 301 288 272 254 232 226
Height
1513 1513 1513 1514 1515 1520 1522 1507 1496 1491 1485 1483 1480 1480 1483 1487 1492 1499 1495 1496 1500 1503 1506 1510 1513 1515 1517 1519 1520 1521 1523 1524 1525 1526 1527 1529 1530 1531 1533 1534 1535 1536 1537 1538 1539 1540 1541 1542 1543
1513 1513 1513 1514 1517 1530 1523 1505 1500 1499 1494 1486 1483 1484 1485 1488 1489 1490 1493 1497 1501 1503 1505 1509 1512 1514 1516 1518 1520 1521 1522 1523 1525 1526 1527 1529 1530 1531 1532 1533 1535 1536 1537 1538 1539 1540 1541 1542 1543
1513 1512 1513 1514 1519 1525 1518 1502 1500 1497 1494 1488 1486 1487 1488 1490 1490 1492 1494 1498 1501 1503 1506 1508 1511 1513 1516 1517 1519 1520 1522 1523 1524 1526 1527 1528 1530 1531 1532 1533 1534 1535 1537 1538 1539 1540 1541 1542 1543
1513 1513 1513 1517 1519 1511 1506 1498 1496 1497 1495 1491 1488 1489 1490 1492 1492 1494 1496 1499 1501 1503 1505 1508 1510 1512 1514 1516 1518 1519 1521 1522 1524 1525 1526 1528 1529 1530 1532 1533 1534 1535 1536 1537 1538 1539 1540 1541 1542
1511 1511 1516 1521 1514 1503 1501 1499 1496 1500 1501 1496 1491 1491 1492 1493 1493 1495 1496 1499 1500 1502 1505 1507 1510 1512 1513 1515 1517 1518 1520 1521 1523 1524 1526 1527 1528 1530 1531 1532 1533 1534 1535 1536 1537 1538 1538 1539 1540
1510 1510 1521 1523 1510 1500 1498 1497 1496 1499 1502 1499 1495 1493 1494 1493 1493 1495 1496 1499 1501 1502 1504 1506 1509 1511 1512 1514 1516 1517 1519 1520 1522 1523 1524 1526 1527 1528 1529 1531 1532 1533 1534 1535 1535 1536 1537 1538 1539
1510 1511 1518 1513 1508 1500 1496 1495 1492 1494 1498 1495 1495 1495 1495 1494 1493 1495 1497 1499 1500 1502 1503 1505 1507 1509 1512 1513 1515 1516 1518 1519 1520 1522 1523 1524 1525 1526 1528 1529 1530 1531 1532 1533 1534 1535 1535 1536 1537
1506 1509 1512 1511 1506 1499 1492 1492 1489 1487 1489 1489 1491 1492 1492 1492 1492 1495 1498 1499 1501 1502 1503 1504 1506 1508 1510 1512 1513 1515 1516 1518 1519 1520 1521 1522 1523 1524 1526 1527 1528 1529 1530 1531 1531 1532 1533 1534 1534
1504 1512 1516 1508 1501 1493 1489 1490 1488 1487 1486 1487 1487 1485 1484 1489 1491 1493 1496 1497 1499 1500 1501 1503 1505 1507 1509 1511 1512 1513 1515 1516 1517 1518 1520 1521 1522 1523 1524 1525 1526 1527 1527 1528 1529 1529 1530 1530 1531
1500 1512 1504 1495 1490 1488 1486 1486 1485 1486 1486 1486 1484 1482 1482 1485 1487 1488 1489 1490 1493 1496 1499 1501 1503 1505 1506 1508 1510 1511 1513 1514 1516 1517 1518 1519 1520 1520 1521 1522 1523 1524 1524 1525 1526 1527 1527 1527 1527
1497 1500 1491 1487 1484 1483 1481 1480 1480 1481 1483 1479 1476 1476 1478 1481 1483 1484 1485 1486 1489 1494 1497 1500 1502 1503 1505 1506 1507 1509 1511 1512 1513 1515 1516 1517 1518 1518 1518 1519 1519 1520 1520 1521 1522 1522 1523 1523 1524
1495 1491 1487 1483 1480 1479 1477 1476 1475 1474 1470 1469 1470 1471 1474 1476 1478 1479 1482 1485 1488 1492 1495 1499 1501 1502 1503 1504 1506 1508 1509 1510 1511 1513 1514 1515 1515 1516 1515 1515 1515 1516 1516 1517 1518 1519 1519 1520 1520
1492 1487 1483 1480 1478 1475 1473 1472 1471 1468 1465 1466 1470 1472 1473 1473 1475 1479 1484 1487 1489 1491 1494 1498 1501 1503 1503 1502 1504 1506 1507 1508 1510 1510 1511 1512 1513 1513 1513 1512 1512 1512 1513 1513 1514 1515 1516 1516 1517
1491 1487 1482 1477 1474 1472 1472 1470 1468 1465 1465 1466 1469 1471 1473 1476 1480 1482 1486 1489 1492 1495 1496 1496 1500 1503 1503 1501 1501 1502 1505 1507 1507 1508 1508 1509 1509 1509 1509 1509 1509 1509 1509 1509 1510 1511 1511 1512 1513
1490 1489 1483 1475 1472 1470 1472 1474 1467 1465 1466 1468 1471 1474 1480 1484 1486 1488 1490 1492 1494 1495 1493 1497 1499 1500 1499 1499 1500 1500 1503 1505 1506 1506 1506 1507 1506 1506 1506 1506 1505 1505 1505 1505 1505 1506 1507 1508 1509
1492 1494 1496 1476 1469 1467 1476 1485 1468 1468 1468 1471 1474 1479 1485 1489 1490 1492 1493 1493 1493 1494 1491 1493 1492 1495 1493 1494 1496 1498 1501 1503 1504 1504 1504 1505 1505 1504 1503 1503 1503 1502 1502 1502 1501 1501 1502 1503 1504
1500 1505 1498 1481 1465 1464 1472 1484 1477 1474 1472 1476 1481 1485 1489 1491 1492 1493 1494 1494 1493 1492 1490 1488 1485 1487 1488 1489 1491 1495 1498 1500 1502 1502 1502 1503 1503 1502 1501 1500 1500 1500 1500 1499 1499 1498 1498 1499 1499
1508 1502 1495 1486 1471 1469 1478 1488 1488 1486 1484 1488 1490 1493 1494 1494 1495 1495 1494 1493 1489 1487 1483 1481 1478 1479 1482 1487 1492 1495 1497 1499 1500 1500 1501 1501 1501 1500 1499 1498 1498 1498 1498 1498 1497 1496 1495 1495 1495
1492 1493 1492 1483 1472 1479 1490 1498 1500 1496 1494 1497 1500 1501 1500 1499 1497 1495 1493 1491 1488 1483 1478 1476 1477 1478 1483 1489 1493 1495 1497 1498 1498 1498 1499 1500 1499 1498 1497 1496 1496 1496 1496 1495 1494 1493 1492 1492 1491
1488 1492 1491 1483 1474 1481 1495 1504 1506 1503 1503 1505 1506 1507 1506 1503 1498 1495 1490 1488 1487 1484 1483 1482 1483 1485 1487 1491 1494 1496 1497 1497 1496 1497 1497 1498 1498 1497 1495 1494 1493 1493 1493 1492 1491 1491 1490 1488 1487
1488 1489 1488 1487 1481 1482 1490 1508 1511 1511 1508 1507 1508 1509 1509 1506 1501 1495 1491 1490 1489 1488 1489 1488 1489 1490 1491 1491 1493 1495 1495 1495 1496 1496 1496 1496 1495 1495 1493 1492 1492 1491 1491 1490 1489 1488 1487 1486 1485
1493 1481 1479 1481 1491 1502 1497 1520 1520 1516 1513 1512 1511 1511 1511 1509 1504 1499 1495 1494 1493 1493 1494 1493 1493 1493 1492 1492 1492 1493 1493 1493 1494 1493 1493 1493 1493 1492 1491 1490 1490 1489 1489 1488 1487 1486 1484 1483 1481
1483 1477 1479 1484 1493 1503 1505 1519 1526 1518 1518 1517 1515 1513 1511 1511 1507 1502 1500 1499 1498 1498 1498 1498 1497 1495 1494 1493 1492 1492 1491 1491 1490 1490 1489 1489 1489 1488 1488 1487 1487 1487 1487 1486 1484 1483 1482 1480 1478
1477 1481 1488 1497 1506 1519 1514 1521 1529 1523 1520 1517 1516 1513 1511 1512 1509 1505 1504 1503 1502 1502 1501 1500 1498 1497 1495 1494 1492 1491 1489 1488 1486 1485 1485 1484 1483 1483 1483 1483 1483 1483 1483 1483 1482 1480 1479 1477 1475
1481 1501 1521 1523 1531 1529 1517 1523 1528 1520 1516 1514 1514 1513 1513 1512 1510 1507 1506 1505 1505 1503 1502 1500 1498 1497 1495 1493 1491 1489 1487 1486 1484 1481 1480 1478 1478 1477 1477 1476 1477 1477 1478 1478 1478 1477 1476 1474 1472
1487 1499 1524 1533 1533 1530 1521 1526 1526 1520 1517 1515 1514 1514 1513 1512 1511 1509 1508 1507 1505 1504 1502 1500 1497 1495 1494 1492 1490 1487 1485 1483 1480 1478 1475 1473 1472 1470 1470 1469 1470 1471 1472 1473 1473 1473 1472 1470 1469
1490 1497 1498 1515 1518 1530 1529 1528 1525 1520 1517 1515 1515 1514 1514 1512 1511 1509 1507 1506 1504 1501 1499 1497 1495 1493 1491 1488 1486 1484 1482 1479 1476 1473 1471 1469 1467 1465 1464 1463 1463 1464 1465 1466 1467 1467 1467 1466 1465
1487 1492 1504 1517 1528 1534 1530 1529 1528 1521 1517 1516 1515 1515 1513 1512 1509 1507 1505 1502 1499 1496 1494 1492 1491 1489 1487 1485 1482 1480 1477 1475 1472 1469 1467 1464 1462 1461 1459 1458 1457 1457 1458 1459 1460 1460 1461 1460 1460
1494 1496 1504 1515 1520 1532 1536 1532 1516 1515 1515 1516 1516 1515 1513 1510 1507 1504 1501 1497 1494 1492 1490 1488 1486 1484 1482 1480 1477 1475 1472 1470 1467 1465 1463 1460 1458 1456 1454 1452 1451 1450 1450 1451 1452 1453 1453 1454 1454
1495 1499 1505 1520 1523 1526 1534 1534 1513 1514 1516 1516 1516 1514 1512 1509 1506 1502 1498 1494 1491 1488 1486 1484 1482 1479 1477 1474 1471 1468 1466 1463 1461 1459 1458 1456 1453 1451 1449 1447 1445 1444 1444 1444 1444 1444 1446 1447 1447